"Period start","avg(HW err(1)/warn(2) (#))","avg(Visibility (m))","avg(Weather code (#))","avg(Precip intensity (mm/h))","min(HW err(1)/warn(2) (#))","max(HW err(1)/warn(2) (#))","std(HW err(1)/warn(2) (#))","med(HW err(1)/warn(2) (#))","min(Visibility (m))","max(Visibility (m))","std(Visibility (m))","med(Visibility (m))","min(Weather code (#))","max(Weather code (#))","std(Weather code (#))","med(Weather code (#))","min(Precip intensity (mm/h))","max(Precip intensity (mm/h))","std(Precip intensity (mm/h))","med(Precip intensity (mm/h))"
2017-03-25 00:00:00,2,25879,0,0.00,2,2,0,2,17062,36586,5520,26890,0,0,0,0,0.00,0.00,0.00,0.00
2017-03-25 00:10:00,2,23586,0,0.00,2,2,0,2,16372,46664,8768,21407,0,0,0,0,0.00,0.00,0.00,0.00
2017-03-25 00:20:00,2,25702,0,0.00,2,2,0,2,21903,30740,2579,25875,0,0,0,0,0.00,0.00,0.00,0.00
2017-03-25 00:30:00,2,28301,0,0.00,2,2,0,2,17425,50000,11065,24390,0,0,0,0,0.00,0.00,0.00,0.00
2017-03-25 00:40:00,2,27277,0,0.00,2,2,0,2,17520,41563,7455,27760,0,0,0,0,0.00,0.00,0.00,0.00
2017-03-25 00:50:00,2,24704,0,0.00,2,2,0,2,13789,48422,10869,18648,0,0,0,0,0.00,0.00,0.00,0.00
2017-03-25 01:00:00,2,32696,0,0.00,2,2,0,2,22648,45016,6878,31868,0,0,0,0,0.00,0.00,0.00,0.00
2017-03-25 01:10:00,2,25360,0,0.00,2,2,0,2,14723,37352,7182,24091,0,0,0,0,0.00,0.00,0.00,0.00
2017-03-25 01:20:00,2,23968,0,0.00,2,2,0,2,18027,37521,5796,23980,0,0,0,0,0.00,0.00,0.00,0.00
2017-03-25 01:30:00,2,21451,0,0.00,2,2,0,2,10311,34166,6772,21389,0,0,0,0,0.00,0.00,0.00,0.00
2017-03-25 01:40:00,2,19991,0,0.00,2,2,0,2,15243,25730,2983,19762,0,0,0,0,0.00,0.00,0.00,0.00
2017-03-25 01:50:00,2,31100,0,0.00,2,2,0,2,13698,41291,8059,30914,0,0,0,0,0.00,0.00,0.00,0.00
2017-03-25 02:00:00,2,25145,0,0.00,2,2,0,2,14675,38707,8667,22576,0,0,0,0,0.00,0.00,0.00,0.00
2017-03-25 02:10:00,2,21717,0,0.00,2,2,0,2,17793,26506,2685,21532,0,0,0,0,0.00,0.00,0.00,0.00
2017-03-25 02:20:00,2,26349,0,0.00,2,2,0,2,18205,46648,7854,23990,0,0,0,0,0.00,0.00,0.00,0.00
2017-03-25 02:30:00,2,26297,0,0.00,2,2,0,2,12974,38263,7125,26692,0,0,0,0,0.00,0.00,0.00,0.00
2017-03-25 02:40:00,2,23946,0,0.00,2,2,0,2,15520,31295,4932,23277,0,0,0,0,0.00,0.00,0.00,0.00
2017-03-25 02:50:00,2,32967,0,0.00,2,2,0,2,19844,47754,8366,33048,0,0,0,0,0.00,0.00,0.00,0.00
2017-03-25 03:00:00,2,28600,0,0.00,2,2,0,2,16434,38970,7006,28706,0,0,0,0,0.00,0.00,0.00,0.00
2017-03-25 03:10:00,2,23738,0,0.00,2,2,0,2,13643,30843,4183,24362,0,0,0,0,0.00,0.00,0.00,0.00
2017-03-25 03:20:00,2,25808,0,0.00,2,2,0,2,14440,41501,7591,25974,0,0,0,0,0.00,0.00,0.00,0.00
2017-03-25 03:30:00,2,23407,0,0.00,2,2,0,2,16332,32354,4415,22654,0,0,0,0,0.00,0.00,0.00,0.00
2017-03-25 03:40:00,2,26342,0,0.00,2,2,0,2,22958,36225,3619,25348,0,0,0,0,0.00,0.00,0.00,0.00
2017-03-25 03:50:00,2,27410,0,0.00,2,2,0,2,15058,43401,8759,27640,0,0,0,0,0.00,0.00,0.00,0.00
2017-03-25 04:00:00,2,28044,0,0.00,2,2,0,2,16144,38670,6995,28968,0,0,0,0,0.00,0.00,0.00,0.00
2017-03-25 04:10:00,2,31637,0,0.00,2,2,0,2,22923,42911,6017,32568,0,0,0,0,0.00,0.00,0.00,0.00
2017-03-25 04:20:00,2,28192,0,0.00,2,2,0,2,19839,40036,6951,27848,0,0,0,0,0.00,0.00,0.00,0.00
2017-03-25 04:30:00,2,38791,0,0.00,2,2,0,2,32487,46564,4874,39714,0,0,0,0,0.00,0.00,0.00,0.00
2017-03-25 04:40:00,2,35302,0,0.00,2,2,0,2,27088,44283,5501,35062,0,0,0,0,0.00,0.00,0.00,0.00
2017-03-25 04:50:00,2,28303,0,0.00,2,2,0,2,20547,41162,6916,26695,0,0,0,0,0.00,0.00,0.00,0.00
2017-03-25 05:00:00,2,32190,0,0.00,2,2,0,2,20277,44235,7781,33595,0,0,0,0,0.00,0.00,0.00,0.00
2017-03-25 05:10:00,2,28766,0,0.00,2,2,0,2,19881,42350,6392,28728,0,0,0,0,0.00,0.00,0.00,0.00
2017-03-25 05:20:00,2,26643,0,0.00,2,2,0,2,18861,37093,5276,24426,0,0,0,0,0.00,0.00,0.00,0.00
2017-03-25 05:30:00,2,35060,0,0.00,2,2,0,2,24361,45113,6179,35380,0,0,0,0,0.00,0.00,0.00,0.00
2017-03-25 05:40:00,2,28529,0,0.00,2,2,0,2,23078,34703,3465,28176,0,0,0,0,0.00,0.00,0.00,0.00
2017-03-25 05:50:00,2,30509,0,0.00,2,2,0,2,21379,44165,7956,27356,0,0,0,0,0.00,0.00,0.00,0.00
2017-03-25 06:00:00,2,33432,0,0.00,2,2,0,2,22878,47768,8252,32656,0,0,0,0,0.00,0.00,0.00,0.00
2017-03-25 06:10:00,2,40274,0,0.00,2,2,0,2,28447,50000,6570,41106,0,0,0,0,0.00,0.00,0.00,0.00
2017-03-25 06:20:00,2,36022,0,0.00,2,2,0,2,25480,48797,7112,35350,0,0,0,0,0.00,0.00,0.00,0.00
2017-03-25 06:30:00,2,40305,0,0.00,2,2,0,2,31573,50000,5412,40725,0,0,0,0,0.00,0.00,0.00,0.00
2017-03-25 06:40:00,2,41590,0,0.00,2,2,0,2,34290,47825,4627,42172,0,0,0,0,0.00,0.00,0.00,0.00
2017-03-25 06:50:00,2,38222,0,0.00,2,2,0,2,31145,46951,5043,37350,0,0,0,0,0.00,0.00,0.00,0.00
2017-03-25 07:00:00,2,35861,0,0.00,2,2,0,2,32397,40578,2118,35670,0,0,0,0,0.00,0.00,0.00,0.00
2017-03-25 07:10:00,2,41251,0,0.00,2,2,0,2,30159,48471,5393,42242,0,0,0,0,0.00,0.00,0.00,0.00
2017-03-25 07:20:00,2,37406,0,0.00,2,2,0,2,30019,47939,6154,35797,0,0,0,0,0.00,0.00,0.00,0.00
2017-03-25 07:30:00,2,40396,0,0.00,2,2,0,2,36621,47868,3140,38922,0,0,0,0,0.00,0.00,0.00,0.00
2017-03-25 07:40:00,2,36529,0,0.00,2,2,0,2,24440,44413,5568,36984,0,0,0,0,0.00,0.00,0.00,0.00
2017-03-25 07:50:00,2,41155,0,0.00,2,2,0,2,37369,47245,3229,40861,0,0,0,0,0.00,0.00,0.00,0.00
2017-03-25 08:00:00,2,34831,0,0.00,2,2,0,2,26399,46717,6767,33201,0,0,0,0,0.00,0.00,0.00,0.00
2017-03-25 08:10:00,2,36191,0,0.00,2,2,0,2,28200,41346,3787,35893,0,0,0,0,0.00,0.00,0.00,0.00
2017-03-25 08:20:00,2,41724,0,0.00,2,2,0,2,33432,49847,4252,41016,0,0,0,0,0.00,0.00,0.00,0.00
2017-03-25 08:30:00,2,35942,0,0.00,2,2,0,2,29122,44713,4727,36190,0,0,0,0,0.00,0.00,0.00,0.00
2017-03-25 08:40:00,2,38309,0,0.00,2,2,0,2,33370,43848,2728,38170,0,0,0,0,0.00,0.00,0.00,0.00
2017-03-25 08:50:00,2,38743,0,0.00,2,2,0,2,31068,45556,4588,38288,0,0,0,0,0.00,0.00,0.00,0.00
2017-03-25 09:00:00,2,36648,0,0.00,2,2,0,2,28419,40549,4028,38150,0,0,0,0,0.00,0.00,0.00,0.00
2017-03-25 09:10:00,2,18179,30,0.00,2,2,0,2,14646,24236,2709,18119,0,78,37,0,0.00,0.00,0.00,0.00
2017-03-25 09:20:00,2,35531,16,0.00,2,2,0,2,25181,42055,5240,35912,0,78,31,0,0.00,0.00,0.00,0.00
2017-03-25 09:30:00,2,32812,0,0.00,2,2,0,2,20959,42645,8256,34768,0,0,0,0,0.00,0.00,0.00,0.00
2017-03-25 09:40:00,2,14790,61,0.03,2,2,0,2,10715,21523,3485,13449,0,78,30,77,0.00,0.05,0.03,0.03
2017-03-25 09:50:00,2,6610,73,0.16,2,2,0,2,4526,9634,1896,6286,71,78,3,71,0.05,0.30,0.08,0.15
2017-03-25 10:00:00,2,3340,72,0.55,2,2,0,2,2633,4082,496,3198,71,77,2,71,0.25,0.90,0.23,0.50
2017-03-25 10:10:00,2,2824,71,0.86,2,2,0,2,2486,3364,236,2808,71,71,0,71,0.50,1.25,0.22,0.83
2017-03-25 10:20:00,2,2365,71,0.99,2,2,0,2,2180,2616,146,2340,71,71,0,71,0.65,1.25,0.17,1.00
2017-03-25 10:30:00,2,2164,71,1.16,2,2,0,2,1966,2333,121,2174,71,71,0,71,0.95,1.60,0.21,1.10
2017-03-25 10:40:00,2,2164,71,1.32,2,2,0,2,1937,2359,119,2153,71,71,0,71,1.10,1.65,0.20,1.23
2017-03-25 10:50:00,2,2672,71,0.82,2,2,0,2,2430,3081,207,2626,71,71,0,71,0.65,0.95,0.09,0.80
2017-03-25 11:00:00,2,3965,71,0.56,2,2,0,2,3336,4433,366,4052,71,71,0,71,0.35,0.80,0.12,0.55
2017-03-25 11:10:00,2,4274,71,0.49,2,2,0,2,3449,5027,410,4274,71,71,0,71,0.35,0.70,0.12,0.45
2017-03-25 11:20:00,2,5398,73,0.25,2,2,0,2,4660,6030,376,5446,71,77,3,71,0.10,0.35,0.07,0.25
2017-03-25 11:30:00,2,5032,76,0.35,2,2,0,2,4290,5654,436,5012,71,77,2,77,0.25,0.45,0.08,0.35
2017-03-25 11:40:00,2,5022,71,0.64,2,2,0,2,4470,5731,357,5029,71,71,0,71,0.40,0.95,0.17,0.62
2017-03-25 11:50:00,2,7305,72,0.25,2,2,0,2,4869,9797,1297,7064,71,77,2,71,0.05,0.55,0.15,0.23
2017-03-25 12:00:00,2,10207,77,0.09,2,2,0,2,7929,12617,1680,10229,77,78,0,77,0.00,0.20,0.05,0.10
2017-03-25 12:10:00,2,10339,74,0.12,2,2,0,2,9544,12020,652,10194,71,78,3,71,0.05,0.25,0.06,0.10
2017-03-25 12:20:00,2,14950,77,0.04,2,2,0,2,10242,24905,5059,12690,77,77,0,77,0.00,0.15,0.04,0.05
2017-03-25 12:30:00,2,28278,76,0.02,2,2,0,2,18860,35742,6117,30624,71,78,3,78,0.00,0.15,0.05,0.00
2017-03-25 12:40:00,2,11334,71,0.45,2,2,0,2,8106,16543,2955,10462,71,71,0,71,0.05,0.95,0.29,0.45
2017-03-25 12:50:00,2,9490,71,0.55,2,2,0,2,6838,13914,2091,8500,71,71,0,71,0.15,1.00,0.27,0.53
2017-03-25 13:00:00,2,12707,71,0.36,2,2,0,2,8509,22648,4043,11728,71,71,0,71,0.05,0.80,0.24,0.30
2017-03-25 13:10:00,2,10172,71,0.55,2,2,0,2,4552,17782,4125,10128,71,71,0,71,0.10,1.05,0.34,0.55
2017-03-25 13:20:00,2,21631,57,0.09,2,2,0,2,9629,33997,8135,20043,0,71,28,71,0.00,0.65,0.19,0.00
2017-03-25 13:30:00,2,28551,0,0.00,2,2,0,2,25779,32744,1910,28357,0,0,0,0,0.00,0.00,0.00,0.00
2017-03-25 13:40:00,2,27450,8,0.00,2,2,0,2,20347,31216,3113,28417,0,40,16,0,0.00,0.00,0.00,0.00
2017-03-25 13:50:00,2,17714,46,0.01,2,2,0,2,9774,24041,4157,17795,0,77,38,77,0.00,0.05,0.02,0.00
2017-03-25 14:00:00,2,21010,0,0.00,2,2,0,2,10733,29240,4855,21417,0,0,0,0,0.00,0.00,0.00,0.00
2017-03-25 14:10:00,2,29767,0,0.00,2,2,0,2,25198,35777,3315,29958,0,0,0,0,0.00,0.00,0.00,0.00
2017-03-25 14:20:00,2,25821,0,0.00,2,2,0,2,17481,34733,4935,26214,0,0,0,0,0.00,0.00,0.00,0.00
2017-03-25 14:30:00,2,16860,0,0.00,2,2,0,2,10750,21912,3569,16526,0,0,0,0,0.00,0.00,0.00,0.00
2017-03-25 14:40:00,2,22406,0,0.00,2,2,0,2,13759,30261,4883,23116,0,0,0,0,0.00,0.00,0.00,0.00
2017-03-25 14:50:00,2,18888,0,0.00,2,2,0,2,12177,28803,4804,19700,0,0,0,0,0.00,0.00,0.00,0.00
2017-03-25 15:00:00,2,18328,16,0.00,2,2,0,2,13731,22962,2965,17701,0,41,20,0,0.00,0.00,0.00,0.00
2017-03-25 15:10:00,2,19857,73,0.03,2,2,0,2,15831,27302,3707,18940,71,77,3,71,0.00,0.05,0.02,0.05
2017-03-25 15:20:00,2,15156,74,0.04,2,2,0,2,12356,19478,1870,14961,71,77,3,74,0.00,0.20,0.06,0.03
2017-03-25 15:30:00,2,8714,71,0.59,2,2,0,2,7249,10829,974,8760,71,71,0,71,0.10,1.25,0.35,0.68
2017-03-25 15:40:00,2,12366,71,0.14,2,2,0,2,9946,16716,2219,12310,71,71,0,71,0.00,0.50,0.18,0.00
2017-03-25 15:50:00,2,17268,75,0.02,2,2,0,2,11935,19370,1936,17794,71,77,3,77,0.00,0.05,0.02,0.00
2017-03-25 16:00:00,2,14227,73,0.10,2,2,0,2,9697,17179,2512,14402,71,77,3,71,0.00,0.30,0.10,0.05
2017-03-25 16:10:00,2,11337,71,0.29,2,2,0,2,7104,16850,2630,10572,71,71,0,71,0.00,1.05,0.32,0.12
2017-03-25 16:20:00,2,12812,71,0.09,2,2,0,2,9812,16785,2249,12824,71,71,0,71,0.00,0.25,0.09,0.05
2017-03-25 16:30:00,2,4401,71,2.20,2,2,0,2,2316,13673,3315,3028,71,71,0,71,0.05,3.30,0.97,2.33
2017-03-25 16:40:00,2,4573,71,1.53,2,2,0,2,2761,7402,1543,4307,71,71,0,71,0.75,2.60,0.61,1.45
2017-03-25 16:50:00,2,7152,71,0.47,2,2,0,2,4995,9007,966,7221,71,71,0,71,0.05,1.70,0.48,0.30
2017-03-25 17:00:00,2,4913,71,1.18,2,2,0,2,2597,6704,1528,5173,71,71,0,71,0.05,3.00,1.09,0.50
2017-03-25 17:10:00,2,2119,71,3.54,2,2,0,2,1724,2479,249,2147,71,71,0,71,2.35,4.80,0.75,3.62
2017-03-25 17:20:00,2,3017,71,1.81,2,2,0,2,2303,3715,542,3136,71,71,0,71,0.95,3.15,0.62,1.75
2017-03-25 17:30:00,2,4194,71,0.49,2,2,0,2,3619,4451,231,4202,71,71,0,71,0.25,1.60,0.38,0.35
2017-03-25 17:40:00,2,6423,73,0.07,2,2,0,2,4781,9511,1428,6123,71,77,3,71,0.00,0.25,0.07,0.05
2017-03-25 17:50:00,2,15794,75,0.00,2,2,0,2,11036,18672,2813,17346,71,77,3,77,0.00,0.00,0.00,0.00
2017-03-25 18:00:00,2,15307,66,0.00,2,2,0,2,12806,18238,1882,15216,41,77,16,77,0.00,0.00,0.00,0.00
2017-03-25 18:10:00,2,9736,76,0.03,2,2,0,2,7049,13170,2188,8844,71,77,2,77,0.00,0.10,0.03,0.03
2017-03-25 18:20:00,2,10974,74,0.00,2,2,0,2,9311,12658,1060,11130,71,77,3,74,0.00,0.00,0.00,0.00
2017-03-25 18:30:00,2,6605,73,0.16,2,2,0,2,5155,8519,1158,6143,71,77,3,71,0.00,0.40,0.13,0.17
2017-03-25 18:40:00,2,5240,73,0.35,2,2,0,2,4715,5911,349,5232,71,77,3,71,0.20,0.85,0.19,0.28
2017-03-25 18:50:00,2,6068,72,0.22,2,2,0,2,4774,8002,1077,5954,71,77,2,71,0.05,0.45,0.15,0.23
2017-03-25 19:00:00,2,9132,76,0.07,2,2,0,2,7516,10456,940,9163,71,77,2,77,0.00,0.20,0.06,0.05
2017-03-25 19:10:00,2,10086,75,0.04,2,2,0,2,7784,11708,1165,10320,71,77,3,77,0.00,0.20,0.06,0.03
2017-03-25 19:20:00,2,12681,0,0.00,2,2,0,2,9245,16220,2012,12582,0,0,0,0,0.00,0.00,0.00,0.00
2017-03-25 19:30:00,2,21224,0,0.00,2,2,0,2,15809,25633,3562,21980,0,0,0,0,0.00,0.00,0.00,0.00
2017-03-25 19:40:00,2,16673,0,0.00,2,2,0,2,13473,19648,1623,16535,0,0,0,0,0.00,0.00,0.00,0.00
2017-03-25 19:50:00,2,13901,26,0.01,2,2,0,2,10081,20825,3604,12396,0,71,28,20,0.00,0.05,0.02,0.00
2017-03-25 20:00:00,2,8988,71,0.37,2,2,0,2,5806,12505,1883,9298,71,71,0,71,0.00,1.60,0.48,0.12
2017-03-25 20:10:00,2,3573,71,2.15,2,2,0,2,2762,6536,1078,3148,71,71,0,71,1.00,3.15,0.68,2.25
2017-03-25 20:20:00,2,3721,71,2.15,2,2,0,2,3027,4752,568,3602,71,71,0,71,1.50,2.95,0.44,1.98
2017-03-25 20:30:00,2,4547,71,1.39,2,2,0,2,3993,5502,456,4478,71,71,0,71,0.80,2.40,0.48,1.27
2017-03-25 20:40:00,2,5112,71,1.16,2,2,0,2,3913,6920,930,4986,71,71,0,71,0.40,2.05,0.51,1.12
2017-03-25 20:50:00,2,4828,71,1.33,2,2,0,2,3614,6189,736,4542,71,71,0,71,0.70,1.90,0.44,1.35
2017-03-25 21:00:00,2,5896,71,0.89,2,2,0,2,4062,7523,1044,5848,71,71,0,71,0.50,1.60,0.30,0.85
2017-03-25 21:10:00,2,4782,71,1.27,2,2,0,2,3463,8268,1695,4096,71,71,0,71,0.30,2.10,0.55,1.30
2017-03-25 21:20:00,2,5654,71,1.41,2,2,0,2,4144,8692,1542,5122,71,71,0,71,0.60,2.50,0.59,1.33
2017-03-25 21:30:00,2,3844,71,2.54,2,2,0,2,2318,10036,2176,2974,71,71,0,71,0.25,4.35,1.15,2.97
2017-03-25 21:40:00,2,3086,71,2.27,2,2,0,2,2449,3703,405,3172,71,71,0,71,1.35,3.85,0.83,2.28
2017-03-25 21:50:00,2,3906,71,0.66,2,2,0,2,2784,4478,498,3940,71,71,0,71,0.30,1.25,0.29,0.62
2017-03-25 22:00:00,2,4499,71,0.62,2,2,0,2,3330,5325,588,4674,71,71,0,71,0.30,1.15,0.30,0.57
2017-03-25 22:10:00,2,7092,72,0.09,2,2,0,2,6070,8396,656,7093,71,77,2,71,0.00,0.40,0.11,0.05
2017-03-25 22:20:00,2,7479,77,0.06,2,2,0,2,6429,8580,590,7360,77,77,0,77,0.00,0.15,0.04,0.05
2017-03-25 22:30:00,2,7246,75,0.01,2,2,0,2,5982,9108,906,7079,71,77,3,77,0.00,0.05,0.02,0.00
2017-03-25 22:40:00,2,6689,75,0.00,2,2,0,2,5410,7638,582,6839,71,77,3,77,0.00,0.00,0.00,0.00
2017-03-25 22:50:00,2,5996,29,0.00,2,2,0,2,3974,7491,1268,6228,10,77,29,10,0.00,0.00,0.00,0.00
2017-03-25 23:00:00,2,5210,28,0.00,2,2,0,2,3201,6450,957,5475,10,71,28,10,0.00,0.00,0.00,0.00
2017-03-25 23:10:00,2,7174,68,0.00,2,2,0,2,5860,8589,927,7026,10,77,20,77,0.00,0.00,0.00,0.00
2017-03-25 23:20:00,2,4410,10,0.00,2,2,0,2,2741,6287,921,4468,10,10,0,10,0.00,0.00,0.00,0.00
2017-03-25 23:30:00,2,4334,16,0.00,2,2,0,2,2250,5830,1024,4520,10,71,18,10,0.00,0.00,0.00,0.00
2017-03-25 23:40:00,2,5260,62,0.00,2,2,0,2,3432,7534,1191,5352,10,77,26,74,0.00,0.00,0.00,0.00
2017-03-25 23:50:00,2,7061,10,0.00,2,2,0,2,4361,11511,2303,6465,10,10,0,10,0.00,0.00,0.00,0.00
